Regional Weather Roundup
Issued by NWS Charleston, WV

Home | Current Version | Previous Version | Text Only | Print | Product List | Glossary On
Versions: 1 2 3 4 5 6 7 8 9 10 11 12 13 14 15 16 17 18 19 20 21 22 23 24 25 26 27 28 29 30 31 32 33 34 35 36 37 38 39 40 41 42 43 44 45 46 47 48 49 50
000
ASUS41 KRLX 121010
RWRRLX
West Virginia Regional Weather Roundup
National Weather Service Charleston WV
500 AM EST TUE DEC 12 2017

Note: "fair" indicates few or no clouds below 12,000 feet with no
significant weather and/or obstructions to visibility.

WVZ003-121100-
Northern Panhandle of West Virginia

CITY           SKY/WX    TMP DP  RH WIND       PRES   REMARKS
WHEELING       CLOUDY    38  27  64 W12G24    29.59R
$$

WVZ009-121100-
Northwest West Virginia

CITY           SKY/WX    TMP DP  RH WIND       PRES   REMARKS
PARKERSBURG    MOCLDY    41  26  55 W9        29.69F
$$

WVZ006-121100-
Western West Virginia

CITY           SKY/WX    TMP DP  RH WIND       PRES   REMARKS
HUNTINGTON     CLOUDY    42  26  53 W13G23    29.75R
$$

WVZ015-121100-
West Central West Virginia

CITY           SKY/WX    TMP DP  RH WIND       PRES   REMARKS
CHARLESTON     CLOUDY    45  26  47 W12G24    29.70F
$$

WVZ022-031-121100-
North Central West Virginia

CITY           SKY/WX    TMP DP  RH WIND       PRES   REMARKS
CLARKSBURG     CLOUDY    44  27  51 W15G23    29.63F
MORGANTOWN     CLOUDY    42  25  50 SW7G21    29.62R
$$

WVZ025-035-042-045-121100-
Southern West Virginia

CITY           SKY/WX    TMP DP  RH WIND       PRES   REMARKS
BECKLEY        MOCLDY    42  26  53 W15       29.65F
LOGAN          CLOUDY    43  27  52 W10G22    29.72S
BLUEFIELD      PTCLDY    39  27  62 W13G23    29.66F
LEWISBURG      MOCLDY    31  26  81 S5        29.64F
$$

WVZ047-121100-
Northern Mountains of West Virginia

CITY           SKY/WX    TMP DP  RH WIND       PRES   REMARKS
ELKINS         CLOUDY    42  26  53 NW10G25   29.62R
$$

WVZ052-121100-
Eastern Panhandle of West Virginia

CITY           SKY/WX    TMP DP  RH WIND       PRES   REMARKS
MARTINSBURG    CLOUDY    35  27  72 CALM      29.59F
PETERSBURG     CLOUDY    31  27  86 CALM      29.58F
$$



USA.gov is the U.S. government's official web portal to all federal, state and local government web resources and services.